NV6B Weather Reports


Display with metric or nautical units.
time (UTC)temp
F
wind
direction
speed
MPH
gust
MPH
rain 1hr
in
rain 24hr
in
rain mn
in
humidity
%
barometer
mb
20260502163533 63 197 3.0 8.0 0.00 0.00 0.00 46 1013.2
20260502162512 62 147 2.0 7.0 0.00 0.00 0.00 46 1013.2
20260502161512 62 189 3.0 10.0 0.00 0.00 0.00 47 1013.3
20260502160512 61 123 2.0 10.0 0.00 0.00 0.00 45 1013.3
20260502151511 55 158 1.0 6.0 0.00 0.00 0.00 55 1013.2
20260502150512 54 143 6.0 6.0 0.00 0.00 0.00 58 1013.0
20260502115510 51 141 0.0 4.0 0.00 0.00 0.00 59 1012.2
20260502114509 52 141 3.0 7.0 0.00 0.00 0.00 59 1012.2
20260502113509 52 141 3.0 7.0 0.00 0.00 0.00 59 1012.3
20260502112509 52 130 1.0 5.0 0.00 0.00 0.00 59 1012.3
20260502111509 52 137 3.0 8.0 0.00 0.00 0.00 60 1012.4
20260502110509 51 141 3.0 8.0 0.00 0.00 0.00 61 1012.3
20260502071507 50 132 2.0 6.0 0.00 0.00 0.00 66 1012.6
20260502070507 50 56 3.0 3.0 0.00 0.00 0.00 66 1012.7
20260502065507 50 43 0.0 0.0 0.00 0.00 0.00 65 1012.7
20260502064507 51 43 0.0 0.0 0.00 0.00 0.00 65 1012.8
20260502063507 51 42 0.0 0.0 0.00 0.00 0.00 64 1012.8
20260502032505 66 38 1.0 3.0 0.00 0.00 0.00 41 1012.5
20260502031505 66 37 0.0 3.0 0.00 0.00 0.00 38 1012.3
20260502030504 67 37 0.0 3.0 0.00 0.00 0.00 38 1012.2
20260502025505 68 37 2.0 3.0 0.00 0.00 0.00 36 1012.1
20260502024505 69 37 0.0 3.0 0.00 0.00 0.00 36 1012.1
20260502023504 71 38 0.0 0.0 0.00 0.00 0.00 37 1012.0
20260502022504 72 38 0.0 0.0 0.00 0.00 0.00 35 1012.0
20260502021504 73 37 0.0 2.0 0.00 0.00 0.00 34 1012.0
20260502020504 74 38 1.0 2.0 0.00 0.00 0.00 31 1011.9
20260502015504 74 37 0.0 2.0 0.00 0.00 0.00 31 1011.9
20260502014504 74 38 0.0 3.0 0.00 0.00 0.00 30 1012.0
20260502013504 75 38 0.0 1.0 0.00 0.00 0.00 29 1012.1
20260501223502 81 118 0.0 10.0 0.00 0.00 0.00 28 1013.6
20260501222502 78 143 3.0 4.0 0.00 0.00 0.00 26 1013.7
20260501221502 79 72 3.0 6.0 0.00 0.00 0.00 26 1013.9
20260501220502 80 37 3.0 5.0 0.00 0.00 0.00 26 1014.1
20260501185500 74 225 4.0 11.0 0.00 0.00 0.00 36 1016.5
20260501184500 73 135 5.0 9.0 0.00 0.00 0.00 35 1016.6
20260501183500 74 100 3.0 9.0 0.00 0.00 0.00 35 1016.7
20260501182500 74 64 6.0 9.0 0.00 0.00 0.00 36 1016.8
20260501181459 72 90 7.0 11.0 0.00 0.00 0.00 37 1016.9
20260501180500 73 124 4.0 8.0 0.00 0.00 0.00 38 1017.0
20260501175459 73 128 7.0 10.0 0.00 0.00 0.00 40 1017.0
20260501174459 72 52 6.0 11.0 0.00 0.00 0.00 41 1017.2
20260501173519 70 116 2.0 8.0 0.00 0.00 0.00 42 1017.4
20260501172459 69 133 4.0 10.0 0.00 0.00 0.00 41 1017.5